AP893 Weather Reports


time (UTC)temp
F
wind
direction
speed
knots
gust
knots
rain 1hr
in
rain 24hr
in
rain mn
in
humidity
%
barometer
mb
20260903130009 50 114 0.0 0.0 0.00 0.00 0.00 84 1017.1
20260903125010 50 114 0.0 0.0 0.00 0.00 0.00 84 1017.1
20260903124009 50 114 0.0 0.0 0.00 0.00 0.00 84 1017.2
20260903123009 50 114 0.0 0.0 0.00 0.00 0.00 84 1017.1
20260903121010 50 114 0.0 4.3 0.00 0.00 0.00 84 1017.2
20260903120009 51 127 0.0 0.0 0.00 0.00 0.00 84 1017.3
20260903115009 51 127 0.0 0.0 0.00 0.00 0.00 83 1017.4
20260903114009 51 127 0.0 0.0 0.00 0.00 0.00 83 1017.4
20260903113009 51 127 0.0 0.0 0.00 0.00 0.00 83 1017.5
20260903112009 51 127 0.0 0.0 0.00 0.00 0.00 84 1017.7
20260903111009 51 127 0.0 6.1 0.00 0.00 0.00 84 1017.7
20260903110009 51 137 0.0 2.6 0.00 0.00 0.00 85 1017.8
20260903105010 51 83 0.0 1.7 0.00 0.00 0.00 85 1017.8
20260903104010 51 78 0.0 0.0 0.00 0.00 0.00 84 1017.8
20260903103010 52 78 0.0 0.0 0.00 0.00 0.00 83 1017.8
20260903102010 52 78 0.0 0.0 0.00 0.00 0.00 82 1017.8
20260903101011 52 78 0.0 0.0 0.00 0.00 0.00 82 1017.8
20260903100009 52 78 0.0 0.0 0.00 0.00 0.00 83 1017.9
20260903095010 52 78 0.0 4.3 0.00 0.00 0.00 84 1017.9
20260903094010 52 143 0.0 0.0 0.00 0.00 0.00 85 1017.9
20260903092010 52 143 0.0 0.0 0.00 0.00 0.00 86 1018.1
20260903091009 52 143 0.0 0.0 0.00 0.00 0.00 85 1018.1
20260903090010 52 143 0.0 0.0 0.00 0.00 0.00 85 1018.2
20260903084010 52 143 0.0 0.0 0.00 0.00 0.00 84 1018.3
20260903083009 52 143 0.0 0.0 0.00 0.00 0.00 84 1018.3
20260903082010 53 143 0.0 0.0 0.00 0.00 0.00 84 1018.3
20260903081010 53 143 0.0 0.0 0.00 0.00 0.00 84 1018.3
20260903080010 53 143 0.0 0.0 0.00 0.00 0.00 82 1018.4
20260903075009 53 143 0.0 0.0 0.00 0.00 0.00 82 1018.3
20260903074010 53 143 0.0 0.0 0.00 0.00 0.00 81 1018.2
20260903073009 54 143 0.0 0.0 0.00 0.00 0.00 80 1018.2
20260903072010 54 143 0.0 0.0 0.00 0.00 0.00 79 1018.3
20260903071010 54 143 0.0 0.0 0.00 0.00 0.00 78 1018.3
20260903070010 55 143 0.0 0.0 0.00 0.00 0.00 77 1018.4
20260903065010 55 143 0.0 0.0 0.00 0.00 0.00 76 1018.4
20260903064010 55 143 0.0 0.0 0.00 0.00 0.00 75 1018.4
20260903060010 56 143 0.9 5.2 0.00 0.00 0.00 73 1018.6
20260903055010 56 277 0.0 0.0 0.00 0.00 0.00 71 1018.6
20260903054010 56 277 0.0 0.0 0.00 0.00 0.00 71 1018.8
20260903053009 57 277 0.0 0.0 0.00 0.00 0.00 69 1018.9
20260903052010 57 277 0.0 0.0 0.00 0.00 0.00 67 1018.9
20260903050009 58 277 0.0 0.0 0.00 0.00 0.00 64 1019.0
20260903045010 59 277 0.0 0.0 0.00 0.00 0.00 63 1019.0
20260903044010 59 277 0.0 0.0 0.00 0.00 0.00 62 1019.0
20260903043010 60 277 0.0 0.0 0.00 0.00 0.00 61 1019.0
20260903042010 61 277 0.0 0.0 0.00 0.00 0.00 59 1019.0
20260903041009 61 277 0.0 0.0 0.00 0.00 0.00 57 1019.0
20260903040009 62 277 0.0 0.0 0.00 0.00 0.00 56 1019.0
20260903035010 62 277 0.0 0.0 0.00 0.00 0.00 53 1018.9
20260903034010 63 277 0.0 0.0 0.00 0.00 0.00 52 1018.9
20260903033009 64 277 0.0 0.0 0.00 0.00 0.00 50 1018.9
20260903032010 65 277 0.0 0.0 0.00 0.00 0.00 48 1018.9
20260903031010 66 277 0.0 0.0 0.00 0.00 0.00 47 1018.8
20260903030010 66 277 0.0 0.0 0.00 0.00 0.00 46 1018.9
20260903025010 67 277 0.0 0.0 0.00 0.00 0.00 45 1019.0
20260903024009 68 277 0.0 0.0 0.00 0.00 0.00 43 1019.1
20260903023010 69 277 0.0 0.0 0.00 0.00 0.00 41 1019.1
20260903022010 69 277 0.0 0.0 0.00 0.00 0.00 40 1019.1
20260903021011 70 277 0.0 1.7 0.00 0.00 0.00 38 1019.0
20260903020009 70 8 0.0 0.0 0.00 0.00 0.00 37 1019.1
20260903015009 71 8 0.0 1.7 0.00 0.00 0.00 36 1019.0
20260903014010 71 8 0.9 4.3 0.00 0.00 0.00 35 1019.0
20260903013010 72 18 0.0 0.0 0.00 0.00 0.00 34 1019.0
20260903011009 73 18 0.9 6.1 0.00 0.00 0.00 32 1019.0
20260903005009 75 254 0.0 5.2 0.00 0.00 0.00 30 1019.2
20260903004009 75 315 0.9 6.1 0.00 0.00 0.00 29 1019.1
20260903003009 75 0 0.0 6.1 0.00 0.00 0.00 30 1019.2
20260903002009 76 285 0.9 6.1 0.00 0.00 0.00 29 1019.2
20260903001010 76 38 0.0 7.0 0.00 0.00 0.00 29 1019.2
20260903000010 76 350 1.7 6.1 0.00 0.00 0.00 29 1019.2
20260902235010 76 268 0.0 5.2 0.00 0.00 0.00 29 1019.3
20260902234009 76 251 1.7 7.8 0.00 0.00 0.00 29 1019.4
20260902233009 76 347 0.9 8.7 0.00 0.00 0.00 29 1019.3
20260902232010 76 299 0.9 8.7 0.00 0.00 0.00 29 1019.3
20260902230009 76 198 2.6 7.0 0.00 0.00 0.00 30 1019.5
20260902225010 75 247 3.5 10.4 0.00 0.00 0.00 29 1019.6
20260902222009 75 38 0.9 6.1 0.00 0.00 0.00 31 1019.7
20260902220010 76 273 2.6 7.8 0.00 0.00 0.00 30 1020.0
20260902215010 76 4 2.6 7.8 0.00 0.00 0.00 29 1020.1
20260902214010 76 216 0.0 6.1 0.00 0.00 0.00 30 1020.2
20260902213010 75 262 2.6 6.1 0.00 0.00 0.00 31 1020.4
20260902211010 75 248 0.9 7.8 0.00 0.00 0.00 32 1020.3
20260902205010 76 191 2.6 8.7 0.00 0.00 0.00 32 1020.4
20260902204010 76 318 3.5 7.8 0.00 0.00 0.00 32 1020.4
20260902202010 76 328 0.9 7.0 0.00 0.00 0.00 32 1020.5
20260902201009 76 296 0.9 7.8 0.00 0.00 0.00 32 1020.5
20260902200011 76 144 0.9 6.1 0.00 0.00 0.00 31 1020.5
20260902195010 76 328 0.0 4.3 0.00 0.00 0.00 31 1020.5
20260902194009 76 145 0.0 7.8 0.00 0.00 0.00 32 1020.5
20260902193009 75 116 0.9 7.8 0.00 0.00 0.00 34 1020.4
20260902192010 74 288 2.6 7.0 0.00 0.00 0.00 34 1020.5
20260902190010 74 0 0.0 7.8 0.00 0.00 0.00 34 1020.5
20260902185010 74 312 4.3 8.7 0.00 0.00 0.00 35 1020.5
20260902184009 74 311 2.6 13.0 0.00 0.00 0.00 34 1020.6
20260902183010 74 260 1.7 7.0 0.00 0.00 0.00 34 1020.6
20260902182009 74 99 1.7 8.7 0.00 0.00 0.00 35 1020.6
20260902181010 73 155 2.6 7.0 0.00 0.00 0.00 36 1020.6
20260902180010 73 256 0.0 7.0 0.00 0.00 0.00 37 1020.6
20260902175009 73 284 1.7 7.8 0.00 0.00 0.00 36 1020.5
20260902174010 72 110 0.9 6.1 0.00 0.00 0.00 38 1020.5
20260902173010 71 172 0.0 7.0 0.00 0.00 0.00 40 1020.4
20260902171010 69 271 2.6 7.8 0.00 0.00 0.00 42 1020.4
20260902170010 69 309 1.7 7.8 0.00 0.00 0.00 43 1020.3
20260902165009 69 281 0.0 2.6 0.00 0.00 0.00 44 1020.2
20260902164009 68 140 0.0 0.0 0.00 0.00 0.00 45 1020.1
20260902163009 67 140 0.0 1.7 0.00 0.00 0.00 46 1020.0
20260902162009 66 121 0.0 0.0 0.00 0.00 0.00 47 1019.9
20260902161010 64 121 0.0 4.3 0.00 0.00 0.00 50 1019.9
20260902160010 61 146 0.9 5.2 0.00 0.00 0.00 54 1019.9
20260902155009 60 140 0.0 0.0 0.00 0.00 0.00 60 1019.9
20260902154009 58 140 0.9 4.3 0.00 0.00 0.00 65 1019.9
20260902152009 55 55 0.0 0.0 0.00 0.00 0.00 76 1019.9
20260902151009 54 55 0.9 2.6 0.00 0.00 0.00 81 1019.7
20260902150010 53 344 0.0 0.0 0.00 0.00 0.00 89 1019.7
20260902145009 51 344 0.0 0.0 0.00 0.00 0.00 93 1019.6
20260902144009 50 344 0.0 0.0 0.00 0.00 0.00 95 1019.6
20260902143009 48 344 0.0 0.0 0.00 0.00 0.00 96 1019.3
20260902141009 47 344 0.0 0.0 0.00 0.00 0.00 95 1018.9
20260902140012 47 344 0.0 0.0 0.00 0.00 0.00 94 1019.0
20260902135009 47 344 0.0 0.0 0.00 0.00 0.00 94 1018.8
20260902132009 47 344 0.0 0.0 0.00 0.00 0.00 93 1018.4